Погода в Борисково

Россия / Калужская область     55°09′05″N   36°56′41″E
В апреле 2022 года жителям России запретили посещать сайт meteo.paraplan.net по решению Генеральной прокуратуры. Аудитория сайта уменьшилась в 10 раз. Владельцы сайта не видят смысла в поддержке погодного сервера в таких условиях. Сайт будет закрыт в октябре.
темп.,
°C
ветер,
м/с
пор.,
м/с
влажн.,
%
обл.,
%
осадки,
мм/ч
давл.,
гПа
погр.,
м
25 сентября, вс
вс2500:00+7з3697100 0.5 998535
03:00+7з3798100 3.1 997522
06:00+6зсз41098100 1.8 998541
09:00+8сз489699 3.1 999567
12:00+8ссз4691100 0.3 1001625
15:00+7ссз2594100 0.6 1003358
18:00+7зсз2395100 0.2 1004139
21:00+6зсз2695100 0.4 1006266
26 сентября, пн
пн2600:00+6зсз2595100 0.1 1007236
03:00+6з2698100 0.1 1008328
06:00+6з3796100 0.1 1008432
09:00+7з3695100 0.1 1009450
12:00+8з4788100 0.1 1010667
15:00+10з457594 0.3 10101006
18:00+8з2687100 0.1 1011294
21:00+7з2791100 0.3 1012224
27 сентября, вт
вт2700:00+6з229499 0.0 101142
03:00+7юз1190100 0.0 101127
06:00+7ююз1291100 0.1 101159
09:00+8ююз2389100 0.2 1011161
12:00+8ююв2395100 1.5 1012115
15:00+10в2383100 1.9 1012304
18:00+9всв378971 0.0 1011229
21:00+8в388899 0.0 1011235
28 сентября, ср
ср2800:00+5в2794100 0.0 1011155
03:00+6в41290100 0.0 1009401
06:00+7в41290100 0.1 1007545
09:00+7всв51296100 2.6 1005594
12:00+7всв51197100 1.8 1004462
15:00+9в41198100 3.6 1002477
18:00+10в3899100 1.6 1002390
21:00+10вюв2799100 1.8 1002365
29 сентября, чт
чт2900:00+10вюв2599100 0.8 1002217
03:00+10ююз2699100 1.4 1003267
06:00+10зюз4896100 0.0 1006426
09:00+9зюз4791100 0.0 1008549
12:00+10зюз3687100 0.0 1011653
15:00+11з3581100 0.0 1013788
18:00+11з2280100 0.0 101632
21:00+9вюв2288100 0.0 101720